Regional Weather Roundup
Issued by NWS

Home | Current Version | Previous Version | Graphics & Text | Print | Product List | Glossary On
Versions: 1 2 3 4 5 6 7 8 9 10 11 12 13 14 15 16 17 18 19 20 21 22 23 24 25 26 27 28 29 30 31 32 33 34 35 36 37 38 39 40 41 42 43 44 45 46 47 48 49 50
000
ASUS43 KIND 251409
RWRIN

WEATHER ROUNDUP FOR INDIANA
NATIONAL WEATHER SERVICE INDIANAPOLIS IN
900 AM EST SUN JAN 25 2015

NOTE: "FAIR" INDICATES FEW OR NO CLOUDS BELOW 12,000 FEET WITH NO
SIGNIFICANT WEATHER AND/OR OBSTRUCTIONS TO VISIBILITY.

* - STATION DOES NOT REPORT WEATHER SUCH AS PRECIPITATION OR FOG.

+ - STATION NOT QUALITY CONTROLLED BY THE NATIONAL WEATHER SERVICE.
    USE DATA WITH CAUTION...ESPECIALLY DEWPOINT AND RELATIVE
    HUMIDITY OBSERVATIONS.

INZ001>003-010>013-019-020-251500-
NORTHWEST INDIANA

CITY           SKY/WX    TMP DP  RH WIND       PRES   REMARKS
GARY /AIRPORT/ LGT RAIN  36  32  87 NE18      29.73R
KNOX *+        CLOUDY    35  30  83 NE8       29.70S WCI  28
LA PORTE +     CLOUDY    36  36 100 NE10      29.72S FOG
MICHIGAN CITY+ RAIN      34  32  93 E6        29.74R WCI  29
MONTICELLO +   LGT RAIN  33  32  97 NE6       29.68F WCI  27
RENSSELAER +   RAIN      34  34 100 NE9       29.69S WCI  26
VALPARAISO     MIX PCPN  34  32  92 NE9       29.72R FOG     WCI  27

$$

LMZ046-743>745-251500-
SOUTHERN LAKE MICHIGAN

STATION/POSITION TIME  TEMP WIND        PRES
                       AIR  DIR/SP/G
                 (UTC) (F)  (DEG/KT/KT) (MB)
MICHIGAN CITY    1400   33   40/ 12/ 13   N/A

$$

INZ004-005-014>016-021>024-251500-
NORTH CENTRAL INDIANA

CITY           SKY/WX    TMP DP  RH WIND       PRES   REMARKS
GOSHEN         CLOUDY    35  33  92 NE12      29.73R FOG     WCI  27
LOGANSPORT +   LGT RAIN  32  32 100 NE7       29.71S WCI  26
PERU/GRISSOM   LGT RAIN  33  32  95 NE6       29.70S WCI  28
ROCHESTER +    DRIZZLE   36  36 100 E6        29.72R
SOUTH BEND     CLOUDY    35  32  88 E9        29.74R FOG     WCI  28
WARSAW +       CLOUDY    34  34 100 NE7       29.72S FOG     WCI  28

$$

INZ006>009-017-018-025>027-251500-
NORTHEAST INDIANA

CITY           SKY/WX    TMP DP  RH WIND       PRES   REMARKS
ANGOLA *+      CLOUDY    34  30  86 E7        29.75R WCI  28
AUBURN +       CLOUDY    34  32  93 NE9       29.74S FOG     WCI  26
FORT WAYNE     CLOUDY    34  31  88 E5        29.74R WCI  30
HUNTINGTON +   DRIZZLE   33  29  86 E5        29.73R WCI  28

$$

INZ028-029-035-036-043>045-051>053-251500-
WEST CENTRAL INDIANA

CITY           SKY/WX    TMP DP  RH WIND       PRES   REMARKS
CRAWFORDSVL +  CLOUDY    32  28  86 E6        29.65  WCI  26
GREENCASTLE +  CLOUDY    34  30  86 E5        29.64F WCI  30
LAFAYETTE      CLOUDY    34  32  92 E6        29.67F WCI  29
TERRE HAUTE    CLOUDY    36  31  82 SE5       29.64F

$$

INZ030>032-037>040-046>048-054>057-064-065-251500-
CENTRAL INDIANA

CITY           SKY/WX    TMP DP  RH WIND       PRES   REMARKS
CP ATTERBURY + CLOUDY    36  32  87 SE6       29.69R
COLUMBUS       CLOUDY    36  30  80 S6        29.70R
INDIANAPOLIS   LGT RAIN  33  30  88 E7        29.67R WCI  27
-EAGLE CREEK   LGT RAIN  35  32  88 CALM      29.67R
KOKOMO *+      CLOUDY    34  30  86 E5        29.71R WCI  30
MARION +       LGT RAIN  33  32  95 E3        29.71S
MT COMFORT *+  CLOUDY    34  30  86 SE5       29.69R WCI  30
SHELBYVILLE    LGT RAIN  38  31  76 S5        29.69R
ZIONSVILLE +   RAIN      34  31  87 E3        29.69R

$$

INZ033-034-041-042-049-050-058-059-251500-
EAST CENTRAL INDIANA

CITY           SKY/WX    TMP DP  RH WIND       PRES   REMARKS
MUNCIE         MIX PCPN  34  31  88 SE3       29.70R FOG

$$

INZ060-061-067>069-081>083-085>088-251500-
SOUTHWEST INDIANA

CITY           SKY/WX    TMP DP  RH WIND       PRES   REMARKS
EVANSVILLE     CLOUDY    43  32  65 S8        29.68F
HUNTINGBURG *+ CLOUDY    39  30  70 S7        29.69S
WASHINGTON +   CLOUDY    37  30  75 S7        29.65S

$$

INZ062-063-066-070>080-084-089>092-251500-
SOUTH CENTRAL AND SOUTHEAST INDIANA

CITY           SKY/WX    TMP DP  RH WIND       PRES   REMARKS
BLOOMINGTON    CLOUDY    37  31  78 SE5       29.66S
SEYMOUR +      CLOUDY    39  32  75 SE7       29.69

$$



USA.gov is the U.S. government's official web portal to all federal, state and local government web resources and services.